Weather in Hajnowka

Poland     52°44′21″N   23°34′53″E
temp.,
°C
wind,
m/s
gust,
m/s
humid.,
%
clouds,
%
prec.,
mm/h
press.,
hPa
HPBL,
m
13 april, tue
tue1323:00+11sse1290100 0.4 101740
02:00+6nw5890100 0.4 1019280
05:00+5nnw5987100 0.1 1020411
08:00+4n51088100 0.3 1020457
11:00+4n61088100 0.6 1021577
14:00+3nnw71195100 1.6 1021634
17:00+2nnw61397100 1.4 1021557
20:00+2n61397100 2.5 1021547
14 april, wed
wed1423:00+2n61397100 2.3 1020558
02:00+1n61498100 4.3 1019510
05:00+1n61498100 2.3 1018540
08:00+1n61498100 3.6 1018562
11:00+1n61398100 2.1 1018540
14:00+1n61198100 3.4 1017600
17:00+1n61198100 0.3 1016533
20:00+1n51198100 1.8 1016486
15 april, thu
thu1523:00+2n51098100 1.4 1015435
02:00+2n41099100 2.6 1014372
05:00+4ne41099100 1.5 1013386
08:00+4se2599100 2.7 1015201
11:00+6e2494100 0.4 1017278
14:00+8nne2694100 0.4 1017455
17:00+8nne51092100 0.5 1017543
20:00+7nne51090100 0.6 1018544
16 april, fri
fri1623:00+6nne51091100 0.0 1018568
02:00+5n51092100 0.0 1017602
05:00+5n51096100 0.6 1016633
08:00+5n51195100 1.3 1016596
11:00+5n51094100 0.8 1016654
14:00+5n51095100 1.4 1016618
17:00+6n51095100 0.7 1017566
20:00+6nne41196100 0.7 1018486
17 april, sat
sat1723:00+6nne4997100 0.1 1018516
02:00+6nne4997100 0.2 1019351
05:00+5nne3998100 0.0 1019267
08:00+8nne3696100 0.3 1018340
11:00+8ne369598 0.6 1020421
14:00+12ene466855 2.1 10201073
17:00+12ene466538 1.3 10201252
20:00+7ene358822 1.9 102190